Regional Weather Roundup
Issued by NWS San Diego, CA

Home | Current Version | Previous Version | Text Only | Print | Product List | Glossary On
Versions: 1 2 3 4 5 6 7 8 9 10 11 12 13 14 15 16 17 18 19 20 21 22 23 24 25 26 27 28 29 30 31 32 33 34 35 36 37 38 39 40 41 42 43 44 45 46 47 48 49 50
000
ASUS46 KSGX 291703
RWRSGX

SAN DIEGO HOURLY WEATHER ROUNDUP
NATIONAL WEATHER SERVICE SAN DIEGO CA
1000 AM PDT TUE JUL 29 2014

NOTE: "FAIR" INDICATES FEW OR NO CLOUDS BELOW 12,000 FEET WITH NO
SIGNIFICANT WEATHER AND/OR OBSTRUCTIONS TO VISIBILITY.

CAZ042-043-060-061-PZZ750-775-291800-

GREATER SAN DIEGO AREA

CITY           SKY/WX    TMP DP  RH WIND       PRES   REMARKS
LINDBERGH FLD  MOSUNNY   79  64  60 NW8       30.04F
POINT LOMA       N/A     75  68  78 W16         N/A
NATIONAL CITY    N/A     79  67  67 CALM      30.03F
CHULA VISTA      N/A     80  66  63 W3        29.97S
IMPERIAL BEACH MOSUNNY   76  67  73 W10       30.04S
BROWN FIELD    SUNNY     80  62  54 W7        30.04F
MIRAMAR MCAS   MOSUNNY   82  58  43 VRB7      30.04F
MONTGOMERY FLD SUNNY     84  60  44 W6        30.04F

$$

NORTH SAN DIEGO COUNTY

CITY           SKY/WX    TMP DP  RH WIND       PRES   REMARKS
CAMP PENDLETON MOSUNNY   81  60  48 S9        30.02F
OCEANSIDE AP   SUNNY     79  62  56 W10       30.02S
VISTA            N/A     80  58  46 CALM      30.01S
CARLSBAD       SUNNY     76  63  64 SW9       30.03S
DEL MAR          N/A     75  69  82 CALM      30.06S
FALLBROOK        N/A     82  54  37 S3        30.03F
ESCONDIDO        N/A     86  54  33 SW3       30.04S
SAN MARCOS       N/A     83  58  42 NW1       30.00F
POWAY            N/A     88  56  33 W3        30.03F
R. PENASQUITOS   N/A     80  58  46 CALM      30.03S

$$

EAST SAN DIEGO COUNTY

CITY           SKY/WX    TMP DP  RH WIND       PRES   REMARKS
RAMONA         SUNNY     87  46  24 NW7       30.07S
SANTEE LAKES     N/A     85  59  41 SE6       30.02F
GILLESPIE FLD  MOSUNNY   88  48  25 CALM      30.04F
LA MESA          N/A     82  62  50 CALM      29.97F
JAMUL            N/A     86  55  34 W3        30.00S
DESCANSO N       N/A     83  50  31 W7        29.89F
MT. LAGUNA OBS   N/A     76  46  34 SW3       29.86F
CAMPO            N/A     87  49  26 W12       30.08F

$$

ORANGE COUNTY AND THE LOS ANGELES BASIN

CITY           SKY/WX    TMP DP  RH WIND       PRES   REMARKS
JOHN WAYNE AP  MOSUNNY   80  59  48 W5        30.03F
LAGUNA BEACH     N/A     73  67  80 S2        30.00S
LAKE FOREST FR   N/A     82  45  26 CALM      29.91F
SANTA ANA        N/A     76  66  71 CALM      29.98F
HUNTINGTON BCH   N/A     77  67  71 W5        30.05F
LOS ALAMITOS   MOSUNNY   80  62  55 W2        30.03F
FULLERTON      SUNNY     79  59  50 CALM      30.02F
LONG BEACH     SUNNY     78  61  55 CALM      30.03F
L.A. AP        MOSUNNY   74  63  68 W9        30.05S
L.A. DOWNTOWN  SUNNY     79  63  57 CALM      30.03S

$$

THE INLAND EMPIRE

CITY           SKY/WX    TMP DP  RH WIND       PRES   REMARKS
CORONA         SUNNY     83  44  25 CALM      30.04F
CHINO          MOSUNNY   85  40  20 CALM      30.05F
ONTARIO        MOSUNNY   83  41  22 VRB6      30.05S
SAN BERNARDINO MOSUNNY   84  39  20 W6        30.06S
RIVERSIDE AP   SUNNY     83  37  19 SW3       30.05S
RIV CYN CREST    N/A     82  52  35 W2        30.03S
MORENO VALLEY    N/A     85  49  28 CALM        N/A
MARCH ARB      SUNNY     86  44  23 VRB1      30.07S
HORSETHIEF CYN   N/A     86  42  21 CALM      30.03F
PERRIS           N/A     86  46  25 SW2       30.05S
MENIFEE          N/A     85  49  28 S1        30.12S
HEMET EAST       N/A     84  49  29 CALM      30.00F
FRENCH VALLEY  FAIR      84  50  30 CALM      30.06F
TEMECULA         N/A     82  54  38 CALM      30.02F

$$

SAN BERNARDINO AND RIVERSIDE COUNTY MOUNTAINS

CITY           SKY/WX    TMP DP  RH WIND       PRES   REMARKS
BIG BEAR AP    SUNNY     70  41  35 W8        30.39S
BIG BEAR SHEA    N/A     71  37  28 N1        30.03S
ANGELUS OAKS     N/A     74  46  36 CALM      29.91S
PINE COVE        N/A     72  47  40 N3        30.01R

$$

SOUTHERN DESERT INCLUDING THE COACHELLA VALLEY

CITY           SKY/WX    TMP DP  RH WIND       PRES   REMARKS
PALM SPRINGS   SUNNY    100  50  18 NW5       29.94F HX  97
THOUSAND PALMS   N/A     99  51  19 W9        29.88F HX  96
THERMAL        SUNNY    102  51  18 NW12      29.87F HX  99
BLYTHE           N/A    N/A N/A N/A MISG      29.92S
IMPERIAL AP    SUNNY    101  52  19 NW6       29.89F HX  98
EL CENTRO NAS  MOSUNNY  102  50  17 W8        29.89F HX  99
YUMA AZ        MOSUNNY   99  55  23 CALM      29.91S HX  97
MEXICALI       SUNNY     99  46  16 W9        29.91  HX  95

$$

UPPER DESERT

CITY           SKY/WX    TMP DP  RH WIND       PRES   REMARKS
VICTORVILLE AP MOSUNNY   86  41  20 W6        30.15S
HESPERIA         N/A     85  48  27 CALM      30.09F
APPLE VALLEY     N/A     85  44  23 CALM      30.18F
GRAY BUTTE AP  NOT AVBL
PALMDALE       SUNNY     86  41  20 CALM      30.14S
LANCASTER      MOSUNNY   86  42  21 CALM      30.12F
EDWARDS AFB    PTSUNNY   85  43  23 VRB2      30.10F
DAGGETT        SUNNY     91  45  20 NW9       30.07F
29 PALMS N     MOSUNNY   93  50  23 NW13      30.13S
NEEDLES        SUNNY     95  62  33 SE3       29.97S HX  96

$$

REGIONAL REPORTS

CITY           SKY/WX    TMP DP  RH WIND       PRES   REMARKS
SANTA BARBARA  MOSUNNY   69  63  81 S8        30.05S
SANDBERG       SUNNY     83  38  20 N12       30.27F
MT. WILSON       N/A     81  37  21 W1          N/A
LAS VEGAS NV   MOSUNNY   90  58  33 VRB3      30.03S
PHOENIX AZ     MOSUNNY   98  59  27 NW8       29.96F HX  98
TIJUANA        MOSUNNY   82  55  39 W2        30.06F
ENSENADA NW      N/A     78  32  18 CALM      29.99F

$$

OFFSHORE ISLANDS

CITY           SKY/WX    TMP DP  RH WIND       PRES   REMARKS
CATALINA ARPT  MOSUNNY   72  56  57 SW8       30.10S
SAN CLEMENTE I PTSUNNY   71  64  78 SW10      30.07S
SAN NICOLAS IS MOSUNNY   69  55  60 W12       30.06S

$$

MARINE AND OFFSHORE BUOY REPORTS

STATION/POSITION SKY/WX   TEMP    WIND        PRES    SWELL
                          AIR SEA DIR/SP/G            HT/PER/DIR
                          (F)     (DEG/KT/KT) (MB)    (FT/S/D)
TANNER BANKS               65 67  320/ 14/ 16 1017.7F   5/220/14
S CLEMENTE BASIN           69 71  320/ 12/ 14 1017.0F   2/190/15
SAN NICOLAS IS.               67                N/A     2/180/13
SO. S. ROSA ISLA           64 66  300/ 12/ 16 1017.7R   3/ 8
W. S. BARBARA CH           61 62  320/ 12/ 16 1017.2R   3/320/ 8
M. S. BARBARA CH           63 64  200/ 12/ 14 1017.5R
S. MONICA BASIN            66 67  250/  6/  8 1017.1R   3/190/13
S PEDRO CHANNEL               67                N/A     2/160/13
DANA POINT                    70                N/A     2/170/14
CMP PENDLETON NS              69                N/A     2/220/15
OCEANSIDE OFFSHR              72                N/A     2/180/13
TORREY PINES OTR              72                N/A     2/190/14
LA JOLLA 1                 74 70  330/  2/  2 1017.3
MISSION BAY BUOY              72                N/A     2/190/14
SAN DIEGO BAY                 74              1017.4F
POINT LOMA SOUTH              71                N/A     2/170/13

$$




USA.gov is the U.S. government's official web portal to all federal, state and local government web resources and services.